Online T20 Cricket Management Game | Hitwicket

Transfer History

Players bought: 51
Players sold: 61
Total purchases: Rs 889,662,900
Total sales: Rs 931,946,520
Displaying 1-20 of 112 results.
DatePlayerFromToSkill IndexTransfer fee
26-07-2021Kamal MahadevKhan's KKRPlacebo Amazers 145,59930,000,000 
30-05-2021David KingsleyBlitzkrieg PerformersPlacebo Amazers 38,66928,393,200 
30-05-2021Bikash LamsalTITANSPlacebo Amazers 34,1089,770,900 
30-05-2021Boman WainePlacebo AmazersDeFeNdiNg ChaMpionS 67,09059,977,600 
29-05-2021Satish SethiAdelaide AmazersPlacebo Amazers 15,6856,016,800 
28-05-2021Doru HazarikaBlitzkrieg PerformersPlacebo Amazers 51,31130,372,000 
27-05-2021Darren NibbiPlacebo AmazersStunners 11 GF 73,04240,824,000 
23-05-2021Jangjeet GrewalBlitzkrieg PerformersPlacebo Amazers 47,80333,469,200 
23-05-2021Yashwanth LakhotiaBlitzkrieg PerformersPlacebo Amazers 55,93940,791,600 
23-05-2021Soumit SinghDhruvin DaredevilsPlacebo Amazers 32,8137,305,000 
22-05-2021Chamara SenanayakeBasseterre NerdsPlacebo Amazers 43,78310,300,000 
22-05-2021Tejas SamoothiriPlacebo AmazersBlazing Phoenix' 96,48384,854,400 
08-05-2021Sherwin MaloneKimberley Hunters 664Placebo Amazers 30,2523,890,300 
07-05-2021Jegan AgarwalOslo CCPlacebo Amazers 29,2735,516,700 
03-05-2021Binesh AgarwalPatel Lions 1617Placebo Amazers 49,55527,010,000 
02-05-2021Vedavrata NandaPatel Lions 1617Placebo Amazers 83,29841,720,000 
29-04-2021Inayat GhaniPlacebo AmazersIslamabad Glassbreakers x11 35,4118,317,600 
29-04-2021Dharmender AgarwalPlacebo AmazersSpace Raiders 43,00215,220,800 
27-04-2021William GarnerAdelaide AmazersPlacebo Amazers 145,7638,851,200 
19-04-2021Saidur NaeemPlacebo AmazersFerdous hr 77,71845,964,800 
Go to page: